UAE770 OMDB-FACT

Flight info

Callsign UAE770
Flight time N/A
Altitude 32000
Route ANVIX R401 GIDIS G783 UKRAG/N0503F330 L710 KUKDI/N0506F320 B400 DAXAM/N0501F340 B400 VEDET UL437 KASIM/N0493F360 UL437 VBU UP305 XOXAM UT969 ESPUV DCT UDGIM UQ60 NEXIT UQ23 OKLOK DCT ERDAS ERDAS1C
Aircraft B77W/H-SDE1E2E3FGHIJ2J3J4J5M1RWXY/LB1D1

Departure

Time N/A
Airport Dubai International Airport (OMDB)

Arrival

Time 2026-05-04 07:54
Airport Cape Town International Airport (FACT)
Time Latitude Longitude Altitude Speed Heading
2026-05-04 07:35 -33.20172 19.25389 20943 ft 450 kts 195°
2026-05-04 07:35 -33.23146 19.24454 20409 ft 445 kts 195°
2026-05-04 07:35 -33.26128 19.23516 19873 ft 441 kts 195°
2026-05-04 07:36 -33.29084 19.22585 19337 ft 437 kts 195°
2026-05-04 07:36 -33.32008 19.21664 18725 ft 434 kts 195°
2026-05-04 07:38 -33.49593 19.10258 15129 ft 406 kts 221°
2026-05-04 07:38 -33.51695 19.08037 14659 ft 401 kts 221°
2026-05-04 07:38 -33.53797 19.05834 14103 ft 399 kts 221°
2026-05-04 07:38 -33.55888 19.03656 13576 ft 397 kts 221°
2026-05-04 07:39 -33.57931 19.01526 13476 ft 383 kts 221°
2026-05-04 07:39 -33.59814 18.99560 13387 ft 370 kts 221°
2026-05-04 07:39 -33.61717 18.97572 13301 ft 357 kts 221°
2026-05-04 07:39 -33.63532 18.95675 13219 ft 345 kts 221°
2026-05-04 07:40 -33.65307 18.93818 13136 ft 333 kts 221°
2026-05-04 07:40 -33.67029 18.92015 12973 ft 324 kts 221°
2026-05-04 07:40 -33.68724 18.90240 12497 ft 326 kts 221°
2026-05-04 07:40 -33.70413 18.88469 12014 ft 328 kts 221°
2026-05-04 07:41 -33.72138 18.86659 11527 ft 330 kts 221°
2026-05-04 07:41 -33.73850 18.84864 11042 ft 330 kts 221°
2026-05-04 07:41 -33.75557 18.83072 10466 ft 323 kts 221°
2026-05-04 07:41 -33.77238 18.81306 9831 ft 319 kts 221°
2026-05-04 07:42 -33.78893 18.79566 9207 ft 315 kts 221°
2026-05-04 07:42 -33.80531 18.77844 8584 ft 311 kts 221°
2026-05-04 07:42 -33.82146 18.76144 7962 ft 307 kts 221°
2026-05-04 07:42 -33.83747 18.74459 7338 ft 304 kts 221°
2026-05-04 07:43 -33.85329 18.72793 6716 ft 301 kts 221°
2026-05-04 07:43 -33.86898 18.71138 6108 ft 298 kts 221°
2026-05-04 07:43 -33.88421 18.69532 5860 ft 282 kts 221°
2026-05-04 07:43 -33.89848 18.68027 5725 ft 273 kts 221°
2026-05-04 07:44 -33.91300 18.66496 5748 ft 278 kts 221°
2026-05-04 07:44 -33.92723 18.64960 5728 ft 276 kts 227°
2026-05-04 07:44 -33.93792 18.63056 5737 ft 275 kts 242°
2026-05-04 07:44 -33.94661 18.60991 5552 ft 277 kts 243°
2026-05-04 07:45 -33.95529 18.58902 5130 ft 281 kts 243°
2026-05-04 07:45 -33.96405 18.56790 4716 ft 283 kts 243°
2026-05-04 07:45 -33.97283 18.54662 4302 ft 285 kts 243°
2026-05-04 07:45 -33.98195 18.52536 3870 ft 283 kts 237°
2026-05-04 07:46 -33.99541 18.50887 3430 ft 283 kts 211°
2026-05-04 07:46 -34.01371 18.50137 3027 ft 284 kts 184°
2026-05-04 07:46 -34.03324 18.50405 2758 ft 280 kts 165°
2026-05-04 07:46 -34.05157 18.51045 2726 ft 267 kts 163°
2026-05-04 07:47 -34.06913 18.51680 2724 ft 265 kts 163°
2026-05-04 07:47 -34.08685 18.52324 2732 ft 266 kts 163°
2026-05-04 07:47 -34.10445 18.52970 2723 ft 264 kts 163°
2026-05-04 07:49 -34.20888 18.59949 2740 ft 268 kts 91°
2026-05-04 07:49 -34.20591 18.62155 2736 ft 267 kts 72°
2026-05-04 07:49 -34.19945 18.64260 2725 ft 266 kts 63°
2026-05-04 07:50 -34.18799 18.65992 2729 ft 266 kts 35°
2026-05-04 07:50 -34.17118 18.66859 2729 ft 264 kts
2026-05-04 07:50 -34.15359 18.66637 2690 ft 249 kts 339°
2026-05-04 07:50 -34.13805 18.65901 2512 ft 239 kts 338°
2026-05-04 07:51 -34.12275 18.65222 2404 ft 235 kts 341°
2026-05-04 07:51 -34.10719 18.64683 2286 ft 227 kts 345°
2026-05-04 07:51 -34.09225 18.64216 2063 ft 216 kts 345°
2026-05-04 07:51 -34.07808 18.63767 1850 ft 205 kts 344°
2026-05-04 07:52 -34.06511 18.63352 1742 ft 181 kts 344°
2026-05-04 07:52 -34.05350 18.62982 1500 ft 162 kts 344°
2026-05-04 07:52 -34.04277 18.62640 1282 ft 159 kts 344°
2026-05-04 07:52 -34.03205 18.62298 1086 ft 160 kts 344°
2026-05-04 07:53 -34.02135 18.61958 871 ft 161 kts 344°
2026-05-04 07:54 -33.96729 18.60233 159 ft 31 kts 346°
2026-05-04 07:55 -33.96518 18.60168 159 ft 19 kts 341°
2026-05-04 07:55 -33.96474 18.60126 158 ft 0 kts 313°
2026-05-04 07:55 -33.96443 18.60094 158 ft 15 kts 319°
2026-05-04 07:55 -33.96322 18.59965 156 ft 22 kts 315°
2026-05-04 07:56 -33.96239 18.59869 156 ft 15 kts 319°
2026-05-04 07:56 -33.96193 18.59765 156 ft 15 kts 249°
2026-05-04 07:56 -33.96273 18.59730 156 ft 13 kts 176°
2026-05-04 07:56 -33.96360 18.59744 156 ft 13 kts 171°
2026-05-04 07:57 -33.96446 18.59762 156 ft 13 kts 169°
2026-05-04 07:57 -33.96532 18.59783 156 ft 13 kts 165°
2026-05-04 07:57 -33.96616 18.59805 156 ft 13 kts 167°
2026-05-04 07:57 -33.96701 18.59832 156 ft 13 kts 163°
2026-05-04 07:58 -33.96732 18.59832 156 ft 2 kts 202°
2026-05-04 07:58 -33.96757 18.59788 156 ft 4 kts 247°
2026-05-04 07:58 -33.96765 18.59757 156 ft 2 kts 253°
2026-05-04 07:58 -33.96831 18.59759 156 ft 0 kts 256°